Time,TemperatureF,DewpointF,PressureIn,WindDirection,WindDirectionDegrees,WindSpeedMPH,WindSpeedGustMPH,Humidity,HourlyPrecipIn,Conditions,Clouds,dailyrainin,SoftwareType,DateUTC
2013-03-08 00:01:00,25.0,19.0,-100.00,South,175,12.0,17.0,79,0.00,,,0.00,,2013-03-08 06:01:00,
2013-03-08 00:11:00,25.0,19.0,-100.00,South,170,14.0,17.0,79,0.00,,,0.00,,2013-03-08 06:11:00,
2013-03-08 00:21:00,25.0,19.0,-100.00,South,170,14.0,17.0,79,0.00,,,0.00,,2013-03-08 06:21:00,
2013-03-08 00:32:00,25.0,19.0,-100.00,South,175,14.0,19.0,79,0.00,,,0.00,,2013-03-08 06:32:00,
2013-03-08 00:42:00,25.0,19.0,-100.00,South,175,14.0,21.0,80,0.00,,,0.00,,2013-03-08 06:42:00,
2013-03-08 00:51:00,25.0,19.0,-100.00,South,180,13.0,17.0,81,0.00,,,0.00,,2013-03-08 06:51:00,
2013-03-08 01:01:00,25.0,19.0,-100.00,South,180,12.0,16.0,82,0.00,,,0.00,,2013-03-08 07:01:00,
2013-03-08 01:11:00,25.0,19.0,-100.00,South,175,13.0,17.0,82,0.00,,,0.00,,2013-03-08 07:11:00,
2013-03-08 01:21:00,25.0,19.0,-100.00,South,180,12.0,16.0,83,0.00,,,0.00,,2013-03-08 07:21:00,
2013-03-08 01:31:00,24.0,19.0,-100.00,South,185,12.0,15.0,84,0.00,,,0.00,,2013-03-08 07:31:00,
2013-03-08 01:42:00,24.0,21.0,-100.00,South,185,11.0,14.0,84,0.00,,,0.00,,2013-03-08 07:42:00,
2013-03-08 01:51:00,24.0,21.0,-100.00,South,180,11.0,13.0,85,0.00,,,0.00,,2013-03-08 07:51:00,
2013-03-08 02:01:00,24.0,21.0,-100.00,South,175,9.0,14.0,85,0.00,,,0.00,,2013-03-08 08:01:00,
2013-03-08 02:11:00,24.0,21.0,-100.00,South,185,11.0,13.0,85,0.00,,,0.00,,2013-03-08 08:11:00,
2013-03-08 02:21:00,24.0,21.0,-100.00,South,175,10.0,13.0,86,0.00,,,0.00,,2013-03-08 08:21:00,
2013-03-08 02:31:00,24.0,21.0,-100.00,South,185,11.0,14.0,86,0.00,,,0.00,,2013-03-08 08:31:00,
2013-03-08 02:41:00,24.0,21.0,-100.00,South,180,10.0,14.0,86,0.00,,,0.00,,2013-03-08 08:41:00,
2013-03-08 02:52:00,24.0,21.0,-100.00,South,180,9.0,12.0,87,0.00,,,0.00,,2013-03-08 08:52:00,
2013-03-08 03:03:00,24.0,21.0,-100.00,South,175,9.0,11.0,87,0.00,,,0.00,,2013-03-08 09:03:00,
2013-03-08 03:21:00,24.0,21.0,-100.00,SSE,165,11.0,12.0,88,0.00,,,0.00,,2013-03-08 09:21:00,
2013-03-08 03:32:00,24.0,21.0,-100.00,South,175,9.0,15.0,88,0.00,,,0.00,,2013-03-08 09:32:00,
2013-03-08 03:42:00,24.0,21.0,-100.00,SSE,160,9.0,12.0,88,0.00,,,0.00,,2013-03-08 09:42:00,
2013-03-08 04:01:00,24.0,21.0,-100.00,SSE,165,9.0,11.0,89,0.00,,,0.00,,2013-03-08 10:01:00,
2013-03-08 04:21:00,24.0,21.0,-100.00,South,170,11.0,12.0,89,0.00,,,0.00,,2013-03-08 10:21:00,
2013-03-08 04:32:00,24.0,21.0,-100.00,South,170,9.0,11.0,89,0.00,,,0.00,,2013-03-08 10:32:00,
2013-03-08 04:41:00,24.0,21.0,-100.00,South,170,11.0,12.0,89,0.00,,,0.00,,2013-03-08 10:41:00,
2013-03-08 04:51:00,24.0,21.0,-100.00,South,175,10.0,12.0,89,0.00,,,0.00,,2013-03-08 10:51:00,
2013-03-08 05:11:00,24.0,21.0,-100.00,South,175,9.0,12.0,89,0.00,,,0.00,,2013-03-08 11:11:00,
2013-03-08 05:21:00,24.0,21.0,-100.00,South,175,7.0,11.0,89,0.00,,,0.00,,2013-03-08 11:21:00,
2013-03-08 05:42:00,24.0,21.0,-100.00,South,170,9.0,12.0,89,0.00,,,0.00,,2013-03-08 11:42:00,
2013-03-08 05:52:00,24.0,21.0,-100.00,South,180,9.0,12.0,89,0.00,,,0.00,,2013-03-08 11:52:00,
2013-03-08 06:01:00,24.0,21.0,-100.00,South,180,7.0,12.0,89,0.00,,,0.00,,2013-03-08 12:01:00,
2013-03-08 06:11:00,24.0,21.0,-100.00,SSE,165,9.0,11.0,90,0.00,,,0.00,,2013-03-08 12:11:00,
2013-03-08 06:22:00,24.0,21.0,-100.00,South,170,9.0,9.0,90,0.00,,,0.00,,2013-03-08 12:22:00,
2013-03-08 06:32:00,24.0,21.0,-100.00,South,170,9.0,11.0,90,0.00,,,0.00,,2013-03-08 12:32:00,
2013-03-08 06:42:00,24.0,21.0,-100.00,South,175,10.0,11.0,90,0.00,,,0.00,,2013-03-08 12:42:00,
2013-03-08 06:52:00,24.0,21.0,-100.00,South,190,7.0,10.0,90,0.00,,,0.00,,2013-03-08 12:52:00,
2013-03-08 07:01:00,24.0,21.0,-100.00,South,180,8.0,10.0,90,0.00,,,0.00,,2013-03-08 13:01:00,
2013-03-08 07:11:00,24.0,21.0,-100.00,South,180,8.0,10.0,90,0.00,,,0.00,,2013-03-08 13:11:00,
2013-03-08 07:21:00,24.0,21.0,-100.00,South,170,8.0,9.0,90,0.00,,,0.00,,2013-03-08 13:21:00,
2013-03-08 07:42:00,24.0,21.0,-100.00,SSW,195,7.0,10.0,90,0.00,,,0.00,,2013-03-08 13:42:00,
2013-03-08 07:52:00,24.0,21.0,-100.00,South,185,7.0,9.0,90,0.00,,,0.00,,2013-03-08 13:52:00,
2013-03-08 08:02:00,24.0,21.0,-100.00,South,185,7.0,9.0,91,0.00,,,0.00,,2013-03-08 14:02:00,
2013-03-08 08:22:00,23.0,21.0,-100.00,South,190,7.0,8.0,91,0.00,,,0.00,,2013-03-08 14:22:00,
2013-03-08 08:32:00,23.0,21.0,-100.00,SSW,195,6.0,7.0,90,0.00,,,0.00,,2013-03-08 14:32:00,
2013-03-08 08:42:00,23.0,21.0,-100.00,South,180,7.0,8.0,90,0.00,,,0.00,,2013-03-08 14:42:00,
2013-03-08 08:52:00,24.0,21.0,-100.00,South,170,10.0,12.0,90,0.00,,,0.00,,2013-03-08 14:52:00,
2013-03-08 09:02:00,24.0,21.0,-100.00,South,175,9.0,11.0,89,0.00,,,0.00,,2013-03-08 15:02:00,
2013-03-08 09:11:00,24.0,21.0,-100.00,South,180,8.0,10.0,89,0.00,,,0.00,,2013-03-08 15:11:00,
2013-03-08 09:22:00,26.0,23.0,-100.00,South,180,10.0,11.0,86,0.00,,,0.00,,2013-03-08 15:22:00,
2013-03-08 09:32:00,26.0,23.0,-100.00,South,180,9.0,12.0,86,0.00,,,0.00,,2013-03-08 15:32:00,
2013-03-08 09:42:00,26.0,23.0,-100.00,South,185,8.0,11.0,86,0.00,,,0.00,,2013-03-08 15:42:00,
2013-03-08 09:53:00,26.0,23.0,-100.00,South,185,8.0,11.0,86,0.00,,,0.00,,2013-03-08 15:53:00,
2013-03-08 10:01:00,28.0,23.0,-100.00,South,180,9.0,11.0,83,0.00,,,0.00,,2013-03-08 16:01:00,
2013-03-08 10:11:00,28.0,23.0,-100.00,South,180,9.0,11.0,83,0.00,,,0.00,,2013-03-08 16:11:00,
2013-03-08 10:21:00,28.0,23.0,-100.00,South,180,9.0,11.0,83,0.00,,,0.00,,2013-03-08 16:21:00,
2013-03-08 10:32:00,28.0,23.0,-100.00,South,180,9.0,11.0,83,0.00,,,0.00,,2013-03-08 16:32:00,
2013-03-08 10:42:00,28.0,23.0,-100.00,South,180,9.0,12.0,82,0.00,,,0.00,,2013-03-08 16:42:00,
2013-03-08 10:52:00,28.0,23.0,-100.00,South,190,11.0,12.0,82,0.00,,,0.00,,2013-03-08 16:52:00,
2013-03-08 11:02:00,28.0,23.0,-100.00,South,185,9.0,12.0,82,0.00,,,0.00,,2013-03-08 17:02:00,
2013-03-08 11:11:00,29.0,25.0,-100.00,South,185,9.0,12.0,82,0.00,,,0.00,,2013-03-08 17:11:00,
2013-03-08 11:21:00,30.0,25.0,-100.00,South,190,7.0,10.0,79,0.00,,,0.00,,2013-03-08 17:21:00,
2013-03-08 11:32:00,30.0,25.0,-100.00,South,175,9.0,11.0,79,0.00,,,0.00,,2013-03-08 17:32:00,
2013-03-08 11:42:00,31.0,25.0,-100.00,South,185,9.0,11.0,78,0.00,,,0.00,,2013-03-08 17:42:00,
2013-03-08 12:02:00,31.0,25.0,-100.00,South,180,9.0,12.0,77,0.00,,,0.00,,2013-03-08 18:02:00,
2013-03-08 12:11:00,31.0,25.0,-100.00,South,180,9.0,11.0,77,0.00,,,0.00,,2013-03-08 18:11:00,
2013-03-08 12:21:00,31.0,25.0,-100.00,South,185,10.0,11.0,77,0.00,,,0.00,,2013-03-08 18:21:00,
2013-03-08 12:32:00,31.0,25.0,-100.00,South,175,10.0,11.0,76,0.00,,,0.00,,2013-03-08 18:32:00,
2013-03-08 12:42:00,31.0,25.0,-100.00,South,175,10.0,11.0,76,0.00,,,0.00,,2013-03-08 18:42:00,
2013-03-08 12:51:00,32.0,25.0,-100.00,South,185,7.0,11.0,76,0.00,,,0.00,,2013-03-08 18:51:00,
2013-03-08 13:01:00,31.0,25.0,-100.00,South,180,10.0,12.0,76,0.00,,,0.00,,2013-03-08 19:01:00,
2013-03-08 13:11:00,31.0,25.0,-100.00,South,180,9.0,12.0,76,0.00,,,0.00,,2013-03-08 19:11:00,
2013-03-08 13:22:00,32.0,25.0,-100.00,South,180,9.0,12.0,77,0.00,,,0.00,,2013-03-08 19:22:00,
2013-03-08 13:32:00,32.0,25.0,-100.00,South,180,9.0,12.0,77,0.00,,,0.00,,2013-03-08 19:32:00,
2013-03-08 13:41:00,32.0,25.0,-100.00,South,180,9.0,12.0,77,0.00,,,0.00,,2013-03-08 19:41:00,
2013-03-08 13:52:00,31.0,25.0,-100.00,South,175,8.0,11.0,77,0.00,,,0.00,,2013-03-08 19:52:00,
2013-03-08 14:01:00,33.0,25.0,-100.00,South,190,7.0,9.0,75,0.00,,,0.00,,2013-03-08 20:01:00,
2013-03-08 14:11:00,33.0,27.0,-100.00,SSW,200,8.0,9.0,75,0.00,,,0.00,,2013-03-08 20:11:00,
2013-03-08 14:21:00,33.0,25.0,-100.00,SSW,205,9.0,11.0,73,0.00,,,0.00,,2013-03-08 20:21:00,
2013-03-08 14:32:00,33.0,25.0,-100.00,SSW,205,9.0,11.0,73,0.00,,,0.00,,2013-03-08 20:32:00,
2013-03-08 14:42:00,34.0,27.0,-100.00,SSW,200,6.0,9.0,72,0.00,,,0.00,,2013-03-08 20:42:00,
2013-03-08 14:52:00,34.0,27.0,-100.00,SSW,210,7.0,11.0,71,0.00,,,0.00,,2013-03-08 20:52:00,
2013-03-08 15:02:00,34.0,25.0,-100.00,SSW,205,7.0,10.0,70,0.00,,,0.00,,2013-03-08 21:02:00,
2013-03-08 15:11:00,35.0,25.0,-100.00,SSW,200,6.0,7.0,69,0.00,,,0.00,,2013-03-08 21:11:00,
2013-03-08 15:21:00,35.0,25.0,-100.00,SSW,200,6.0,7.0,69,0.00,,,0.00,,2013-03-08 21:21:00,
2013-03-08 15:32:00,35.0,25.0,-100.00,SSW,200,6.0,7.0,69,0.00,,,0.00,,2013-03-08 21:32:00,
2013-03-08 15:42:00,35.0,25.0,-100.00,SSW,200,6.0,7.0,69,0.00,,,0.00,,2013-03-08 21:42:00,
2013-03-08 15:52:00,33.0,25.0,-100.00,NNW,330,5.0,7.0,69,0.00,,,0.00,,2013-03-08 21:52:00,
2013-03-08 16:01:00,32.0,25.0,-100.00,NNW,330,4.0,6.0,73,0.00,,,0.00,,2013-03-08 22:01:00,
2013-03-08 16:11:00,32.0,25.0,-100.00,NNW,335,3.0,6.0,74,0.00,,,0.00,,2013-03-08 22:11:00,
2013-03-08 16:22:00,32.0,25.0,-100.00,NNW,335,4.0,4.0,74,0.00,,,0.00,,2013-03-08 22:22:00,
2013-03-08 16:32:00,32.0,25.0,-100.00,North,350,4.0,4.0,75,0.00,,,0.00,,2013-03-08 22:32:00,
2013-03-08 16:42:00,33.0,25.0,-100.00,NNE,30,4.0,4.0,72,0.00,,,0.00,,2013-03-08 22:42:00,
2013-03-08 16:52:00,34.0,25.0,-100.00,NE,45,4.0,4.0,69,0.00,,,0.00,,2013-03-08 22:52:00,
2013-03-08 17:01:00,33.0,25.0,-100.00,NE,45,3.0,4.0,70,0.00,,,0.00,,2013-03-08 23:01:00,
2013-03-08 17:12:00,33.0,25.0,-100.00,NE,50,3.0,4.0,71,0.00,,,0.00,,2013-03-08 23:12:00,
2013-03-08 17:21:00,33.0,25.0,-100.00,NE,55,4.0,4.0,72,0.00,,,0.00,,2013-03-08 23:21:00,
2013-03-08 17:32:00,33.0,25.0,-100.00,NE,55,4.0,4.0,72,0.00,,,0.00,,2013-03-08 23:32:00,
2013-03-08 17:42:00,31.0,25.0,-100.00,NE,45,4.0,4.0,75,0.00,,,0.00,,2013-03-08 23:42:00,
2013-03-08 17:52:00,31.0,25.0,-100.00,NE,40,4.0,5.0,76,0.00,,,0.00,,2013-03-08 23:52:00,
2013-03-08 18:01:00,31.0,25.0,-100.00,NE,40,4.0,5.0,76,0.00,,,0.00,,2013-03-09 00:01:00,
2013-03-08 18:11:00,30.0,25.0,-100.00,NE,35,3.0,5.0,77,0.00,,,0.00,,2013-03-09 00:11:00,
2013-03-08 18:22:00,30.0,25.0,-100.00,NE,35,3.0,5.0,77,0.00,,,0.00,,2013-03-09 00:22:00,
2013-03-08 18:32:00,30.0,25.0,-100.00,NE,35,3.0,5.0,77,0.00,,,0.00,,2013-03-09 00:32:00,
2013-03-08 18:42:00,29.0,25.0,-100.00,NNE,20,4.0,6.0,81,0.00,,,0.00,,2013-03-09 00:42:00,
2013-03-08 18:52:00,29.0,25.0,-100.00,NNE,20,4.0,6.0,81,0.00,,,0.00,,2013-03-09 00:52:00,
2013-03-08 19:01:00,28.0,23.0,-100.00,North,5,4.0,7.0,83,0.00,,,0.00,,2013-03-09 01:01:00,
2013-03-08 19:12:00,28.0,23.0,-100.00,North,5,4.0,7.0,83,0.00,,,0.00,,2013-03-09 01:12:00,
2013-03-08 19:21:00,27.0,23.0,-100.00,North,0,5.0,6.0,86,0.00,,,0.00,,2013-03-09 01:21:00,
2013-03-08 19:32:00,27.0,23.0,-100.00,North,10,5.0,6.0,86,0.00,,,0.00,,2013-03-09 01:32:00,
2013-03-08 19:41:00,27.0,23.0,-100.00,NNE,30,2.0,7.0,87,0.00,,,0.00,,2013-03-09 01:41:00,
2013-03-08 19:51:00,27.0,23.0,-100.00,NNE,15,4.0,6.0,87,0.00,,,0.00,,2013-03-09 01:51:00,
2013-03-08 20:01:00,27.0,23.0,-100.00,NNE,30,4.0,6.0,87,0.00,,,0.00,,2013-03-09 02:01:00,
2013-03-08 20:11:00,26.0,23.0,-100.00,North,10,4.0,7.0,87,0.00,,,0.00,,2013-03-09 02:11:00,
2013-03-08 20:21:00,26.0,23.0,-100.00,NNE,15,4.0,6.0,87,0.00,,,0.00,,2013-03-09 02:21:00,
2013-03-08 20:31:00,26.0,23.0,-100.00,NNE,15,4.0,6.0,87,0.00,,,0.00,,2013-03-09 02:31:00,
2013-03-08 20:41:00,26.0,23.0,-100.00,North,5,6.0,7.0,88,0.00,,,0.00,,2013-03-09 02:41:00,
2013-03-08 20:51:00,26.0,23.0,-100.00,NNW,345,5.0,7.0,88,0.00,,,0.00,,2013-03-09 02:51:00,
2013-03-08 21:01:00,26.0,23.0,-100.00,North,5,7.0,9.0,88,0.00,,,0.00,,2013-03-09 03:01:00,
2013-03-08 21:11:00,26.0,23.0,-100.00,NNW,345,10.0,11.0,89,0.00,,,0.00,,2013-03-09 03:11:00,
2013-03-08 21:21:00,25.0,23.0,-100.00,North,5,6.0,9.0,88,0.00,,,0.00,,2013-03-09 03:21:00,
2013-03-08 21:31:00,25.0,23.0,-100.00,North,5,6.0,9.0,88,0.00,,,0.00,,2013-03-09 03:31:00,
2013-03-08 21:41:00,25.0,21.0,-100.00,North,5,4.0,7.0,87,0.00,,,0.00,,2013-03-09 03:41:00,
2013-03-08 21:52:00,25.0,21.0,-100.00,NNE,15,4.0,6.0,87,0.00,,,0.00,,2013-03-09 03:52:00,
2013-03-08 22:01:00,25.0,21.0,-100.00,North,10,4.0,6.0,87,0.00,,,0.00,,2013-03-09 04:01:00,
2013-03-08 22:11:00,24.0,21.0,-100.00,North,350,5.0,6.0,88,0.00,,,0.00,,2013-03-09 04:11:00,
2013-03-08 22:22:00,24.0,21.0,-100.00,North,350,5.0,6.0,88,0.00,,,0.00,,2013-03-09 04:22:00,
2013-03-08 22:32:00,24.0,21.0,-100.00,North,5,4.0,6.0,89,0.00,,,0.00,,2013-03-09 04:32:00,
2013-03-08 22:41:00,24.0,21.0,-100.00,North,5,5.0,6.0,88,0.00,,,0.00,,2013-03-09 04:41:00,
2013-03-08 22:52:00,24.0,21.0,-100.00,North,5,5.0,6.0,88,0.00,,,0.00,,2013-03-09 04:52:00,
2013-03-08 23:02:00,22.0,19.0,-100.00,North,350,7.0,7.0,89,0.00,,,0.00,,2013-03-09 05:02:00,
2013-03-08 23:12:00,22.0,19.0,-100.00,NNW,335,6.0,8.0,90,0.00,,,0.00,,2013-03-09 05:12:00,
2013-03-08 23:21:00,22.0,19.0,-100.00,NNW,335,7.0,7.0,90,0.00,,,0.00,,2013-03-09 05:21:00,
2013-03-08 23:31:00,23.0,21.0,-100.00,NNW,345,7.0,8.0,90,0.00,,,0.00,,2013-03-09 05:31:00,
2013-03-08 23:42:00,23.0,21.0,-100.00,NNW,335,9.0,9.0,90,0.00,,,0.00,,2013-03-09 05:42:00,
2013-03-08 23:52:00,24.0,21.0,-100.00,NNW,340,9.0,11.0,90,0.00,,,0.00,,2013-03-09 05:52:00,